Terminal Aerodrome Forecast
Issued by NWS New Orleans/Baton Rouge, LA

Home | Current Version | Previous Version | Text Only | Print | Product List | Glossary On
Versions: 1 2 3 4 5 6 7 8 9 10 11 12 13 14 15
000
FTUS44 KLIX 052323
TAFBTR
TAF
KBTR 052323Z 0600/0624 12006KT P6SM FEW250
      TEMPO 0610/0612 5SM BR
     FM061500 12009KT P6SM BKN035=

USA.gov is the U.S. government's official web portal to all federal, state and local government web resources and services.